Location: Newark
(7.0858°N, 171.3717°E)
Time: 02:40:16
(UTC+00:00)

Transit 2A - Pass Details

Date: 01 December 2020
Orbit: 598 x 960 km, 66.7° (Epoch: 20 January)

Event Time Altitude Azimuth Distance (km) Brightness Sun altitude
Rises 16:35:58 0° 307° (NW) 2,921 - -27.6°
Reaches altitude 10° 16:39:31 10° 278° (W) 1,966 - -26.8°
Maximum altitude 16:41:25 13° 252° (WSW) 1,780 - -26.3°
Drops below altitude 10° 16:43:18 10° 226° (SW) 1,937 - -25.9°
Exits shadow 16:45:49 - 202° (SSW) 2,543 8.7 -25.3°
Sets 16:46:45 0° 197° (SSW) 2,832 9.0 -25.1°
